When you browse on this site, cookies collect data to enhance your experience and personalize the content and advertising you see.
Visit our Privacy Policy to learn more. By continuing to use the site, you agree to this use of cookies and data.
  • In United Kingdom
  • List of Countries
  • For 7 days
  • Water Temperature
  • Weather Map
  • Weather Widgets
  • user-avatar
    Login

    Hourly Weather Mezokovesd

    Today, 23 September, Monday

    Time Temperature Precipitation Wind Pressure Humidity
    00:00 +14°C° 0 mm 1 mps 751 mmHg 45%
    01:00 +14°C° 0 mm 1 mps 751 mmHg 47%
    02:00 +14°C° 0 mm 2 mps 751 mmHg 48%
    03:00 +13°C° 0 mm 2 mps 750 mmHg 48%
    04:00 +13°C° 0 mm 2 mps 750 mmHg 49%
    05:00 +14°C° 0 mm 2 mps 750 mmHg 49%
    06:00 +14°C° 0 mm 1 mps 750 mmHg 49%
    07:00 +15°C° 0 mm 1 mps 751 mmHg 42%
    08:00 +15°C° 0 mm 2 mps 751 mmHg 42%
    09:00 +16°C° 0 mm 2 mps 751 mmHg 42%
    10:00 +17°C° 0 mm 2 mps 751 mmHg 43%
    11:00 +17°C° 0 mm 2 mps 751 mmHg 46%
    12:00 +17°C° 0 mm 2 mps 750 mmHg 49%
    13:00 +17°C° 0 mm 2 mps 750 mmHg 52%
    14:00 +16°C° 0 mm 2 mps 750 mmHg 55%
    15:00 +16°C° 0 mm 2 mps 750 mmHg 57%
    16:00 +16°C° 0 mm 2 mps 750 mmHg 60%
    17:00 +15°C° 0 mm 2 mps 750 mmHg 62%
    18:00 +15°C° 0 mm 2 mps 750 mmHg 63%
    19:00 +15°C° 0 mm 2 mps 750 mmHg 65%
    20:00 +15°C° 0 mm 2 mps 750 mmHg 67%
    21:00 +15°C° 0 mm 2 mps 750 mmHg 69%
    22:00 +15°C° 0 mm 2 mps 750 mmHg 71%
    23:00 +15°C° 0 mm 2 mps 750 mmHg 71%

    Tomorrow, 24 September, Tuesday

    Time Temperature Precipitation Wind Pressure Humidity
    00:00 +16°C° 0 mm 2 mps 750 mmHg 71%
    01:00 +16°C° 0 mm 2 mps 750 mmHg 71%
    02:00 +15°C° 0 mm 2 mps 749 mmHg 71%
    03:00 +15°C° 0 mm 2 mps 749 mmHg 72%
    04:00 +15°C° 0 mm 2 mps 749 mmHg 72%
    05:00 +15°C° 0 mm 2 mps 749 mmHg 70%
    06:00 +15°C° 0 mm 2 mps 749 mmHg 68%
    07:00 +14°C° 0 mm 3 mps 749 mmHg 66%
    08:00 +17°C° 0 mm 3 mps 749 mmHg 59%
    09:00 +20°C° 0 mm 3 mps 749 mmHg 51%
    10:00 +22°C° 0 mm 3 mps 749 mmHg 43%
    11:00 +22°C° 0 mm 3 mps 749 mmHg 42%
    12:00 +24°C° 0 mm 3 mps 749 mmHg 41%
    13:00 +24°C° 0 mm 3 mps 748 mmHg 40%
    14:00 +24°C° 0 mm 2 mps 748 mmHg 41%
    15:00 +24°C° 0 mm 2 mps 748 mmHg 42%
    16:00 +24°C° 0 mm 1 mps 748 mmHg 43%
    17:00 +22°C° 0 mm 1 mps 748 mmHg 47%
    18:00 +21°C° 0 mm 1 mps 748 mmHg 51%
    19:00 +20°C° 0 mm 1 mps 748 mmHg 54%
    20:00 +18°C° 0 mm 2 mps 748 mmHg 56%
    21:00 +18°C° 0 mm 2 mps 749 mmHg 58%
    22:00 +17°C° 0 mm 2 mps 749 mmHg 60%
    23:00 +17°C° 0.1 mm 2 mps 749 mmHg 65%

    Day after tomorrow, 25 September, Wednesday

    Time Temperature Precipitation Wind Pressure Humidity
    00:00 +16°C° 0.1 mm 2 mps 749 mmHg 71%
    01:00 +16°C° 0.1 mm 2 mps 749 mmHg 76%
    02:00 +16°C° 0.6 mm 2 mps 749 mmHg 80%
    03:00 +15°C° 0.6 mm 2 mps 748 mmHg 85%
    04:00 +15°C° 0.6 mm 2 mps 748 mmHg 89%
    05:00 +15°C° 0.3 mm 2 mps 748 mmHg 89%
    06:00 +15°C° 0.3 mm 2 mps 748 mmHg 90%
    07:00 +15°C° 0.3 mm 2 mps 748 mmHg 90%
    08:00 +15°C° 0 mm 2 mps 749 mmHg 88%
    09:00 +16°C° 0 mm 2 mps 749 mmHg 86%
    10:00 +16°C° 0 mm 3 mps 749 mmHg 84%
    11:00 +17°C° 0 mm 2 mps 749 mmHg 82%
    12:00 +17°C° 0 mm 2 mps 748 mmHg 80%
    13:00 +18°C° 0 mm 2 mps 748 mmHg 78%
    14:00 +19°C° 0 mm 1 mps 748 mmHg 76%
    15:00 +19°C° 0 mm 1 mps 748 mmHg 74%
    16:00 +20°C° 0 mm 1 mps 747 mmHg 71%
    17:00 +19°C° 0 mm 1 mps 748 mmHg 76%
    18:00 +18°C° 0 mm 1 mps 748 mmHg 81%
    19:00 +16°C° 0 mm 1 mps 748 mmHg 85%
    20:00 +16°C° 0 mm 1 mps 748 mmHg 86%
    21:00 +16°C° 0 mm 1 mps 748 mmHg 87%
    22:00 +15°C° 0 mm 1 mps 748 mmHg 88%
    23:00 +15°C° 0 mm 1 mps 748 mmHg 89%

    26 September, Thursday

    Time Temperature Precipitation Wind Pressure Humidity
    00:00 +15°C° 0 mm 1 mps 748 mmHg 90%
    01:00 +15°C° 0 mm 1 mps 748 mmHg 90%
    02:00 +15°C° 0 mm 1 mps 748 mmHg 91%
    03:00 +14°C° 0 mm 1 mps 748 mmHg 92%
    04:00 +14°C° 0 mm 1 mps 748 mmHg 93%
    05:00 +14°C° 0.3 mm 1 mps 748 mmHg 93%
    06:00 +15°C° 0.3 mm 1 mps 748 mmHg 92%
    07:00 +15°C° 0.3 mm 1 mps 748 mmHg 92%
    08:00 +15°C° 0.6 mm 1 mps 749 mmHg 92%
    09:00 +15°C° 0.6 mm 1 mps 749 mmHg 91%
    10:00 +14°C° 0.6 mm 0 mps 749 mmHg 91%
    11:00 +15°C° 0.8 mm 1 mps 749 mmHg 91%
    12:00 +15°C° 0.8 mm 1 mps 749 mmHg 91%
    13:00 +15°C° 0.8 mm 2 mps 749 mmHg 91%
    14:00 +15°C° 0.3 mm 1 mps 749 mmHg 89%
    15:00 +16°C° 0.3 mm 1 mps 749 mmHg 88%
    16:00 +16°C° 0.3 mm 1 mps 749 mmHg 86%
    17:00 +15°C° 0 mm 1 mps 750 mmHg 88%
    18:00 +14°C° 0 mm 1 mps 750 mmHg 89%
    19:00 +13°C° 0 mm 0 mps 750 mmHg 91%
    20:00 +12°C° 0 mm 0 mps 751 mmHg 91%
    21:00 +12°C° 0 mm 0 mps 751 mmHg 91%
    22:00 +12°C° 0 mm 0 mps 751 mmHg 91%
    23:00 +13°C° 0 mm 1 mps 751 mmHg 91%

    27 September, Friday

    Time Temperature Precipitation Wind Pressure Humidity
    00:00 +13°C° 0 mm 1 mps 751 mmHg 91%
    01:00 +12°C° 0 mm 1 mps 751 mmHg 91%
    02:00 +12°C° 0 mm 1 mps 752 mmHg 91%
    03:00 +12°C° 0 mm 1 mps 752 mmHg 91%
    04:00 +12°C° 0 mm 1 mps 752 mmHg 91%
    05:00 +13°C° 0 mm 1 mps 752 mmHg 88%
    06:00 +13°C° 0 mm 1 mps 752 mmHg 85%
    07:00 +14°C° 0 mm 1 mps 752 mmHg 83%
    08:00 +16°C° 0 mm 1 mps 753 mmHg 75%
    09:00 +19°C° 0 mm 1 mps 753 mmHg 67%
    10:00 +21°C° 0 mm 1 mps 753 mmHg 59%
    11:00 +21°C° 0 mm 1 mps 753 mmHg 55%
    12:00 +21°C° 0 mm 2 mps 753 mmHg 52%
    13:00 +23°C° 0 mm 2 mps 753 mmHg 48%
    14:00 +23°C° 0 mm 2 mps 752 mmHg 49%
    15:00 +23°C° 0 mm 2 mps 752 mmHg 49%
    16:00 +23°C° 0 mm 1 mps 752 mmHg 50%
    17:00 +21°C° 0 mm 1 mps 752 mmHg 55%
    18:00 +20°C° 0 mm 1 mps 753 mmHg 60%
    19:00 +18°C° 0 mm 1 mps 753 mmHg 65%
    20:00 +18°C° 0 mm 1 mps 753 mmHg 66%
    21:00 +18°C° 0 mm 1 mps 753 mmHg 67%
    22:00 +18°C° 0 mm 1 mps 753 mmHg 69%
    23:00 +16°C° 0 mm 1 mps 753 mmHg 71%

    28 September, Saturday

    Time Temperature Precipitation Wind Pressure Humidity
    00:00 +16°C° 0 mm 1 mps 753 mmHg 73%
    01:00 +15°C° 0 mm 2 mps 753 mmHg 75%
    02:00 +15°C° 0 mm 1 mps 753 mmHg 77%
    03:00 +15°C° 0 mm 1 mps 753 mmHg 79%
    04:00 +15°C° 0 mm 1 mps 753 mmHg 81%
    05:00 +15°C° 0 mm 1 mps 753 mmHg 80%
    06:00 +16°C° 0 mm 1 mps 753 mmHg 78%
    07:00 +16°C° 0 mm 1 mps 753 mmHg 76%
    08:00 +19°C° 0 mm 1 mps 754 mmHg 70%
    09:00 +19°C° 0 mm 2 mps 754 mmHg 64%
    10:00 +21°C° 0 mm 2 mps 754 mmHg 58%
    11:00 +23°C° 0 mm 2 mps 754 mmHg 55%
    12:00 +24°C° 0 mm 3 mps 753 mmHg 52%
    13:00 +25°C° 0 mm 3 mps 753 mmHg 49%
    14:00 +25°C° 0 mm 3 mps 753 mmHg 49%
    15:00 +24°C° 0 mm 2 mps 752 mmHg 50%
    16:00 +24°C° 0 mm 2 mps 752 mmHg 50%
    17:00 +23°C° 0 mm 2 mps 752 mmHg 54%
    18:00 +20°C° 0 mm 2 mps 752 mmHg 58%
    19:00 +20°C° 0 mm 1 mps 753 mmHg 62%
    20:00 +19°C° 0 mm 1 mps 753 mmHg 64%
    21:00 +19°C° 0 mm 1 mps 753 mmHg 65%
    22:00 +18°C° 0 mm 1 mps 753 mmHg 66%
    23:00 +18°C° 0 mm 1 mps 753 mmHg 67%
    Show more